sat.trackr.live / text

‹ back to catalog

STARLINK-11366 [DTC]

NORAD 61693 · 2024-195G

PAYLOAD ACTIVE UNKNOWN

§ Identity

Operator
Country
US
Launch date
2024-10-30
Launch site
AFWTR
Launch vehicle
Mass (kg)
RCS (m²)

Purposes: comms

External: N2YO · Heavens-Above · Gunter

§ Orbital elements

Epoch: 2026-05-25T00:43:45.493824Z

Period
91.74 min
Inclination
53.1592°
Eccentricity
0.0001104
Mean motion
15.69705430 rev/d
Perigee alt
359.0 km
Apogee alt
360.5 km
Semi-major
6,737.9 km
B*
5.3662e-6
RAAN
9.9341°
Arg perigee
66.0397°
Mean anomaly
294.0737°
Rev number
9,102

§ Raw data

STARLINK-11366 [DTC]1 61693U 24195G   26145.03038766  .00000061  00000+0  53662-5 0  99902 61693  53.1592   9.9341 0001104  66.0397 294.0737 15.69705430 91029

JSON: /api/v1/satellites/61693 · /tle

For live sub-satellite position, see the globe view (requires WebGL).

§ Visibility from observer

Set your observer location to see the next 7 days of passes ≥ 10°. The values pass through the URL so the page stays shareable.

No JS? Fill the form by hand. The geolocation button needs JavaScript.